Regional Weather Roundup
Issued by NWS

Home | Current Version | Previous Version | Graphics & Text | Print | Product List | Glossary On
Versions: 1 2 3 4 5 6 7 8 9 10 11 12 13 14 15 16 17 18 19 20 21 22 23 24 25 26 27 28 29 30 31 32 33 34 35 36 37 38 39 40 41 42 43 44 45 46 47 48 49 50
000
ASUS43 KLMK 221502
RWRKY
KENTUCKY REGIONAL WEATHER ROUNDUP
NATIONAL WEATHER SERVICE LOUISVILLE KY
1100 AM EDT MON MAY 22 2017

NOTE "FAIR" INDICATES FEW OR NO CLOUDS BELOW 12,000 FEET
WITH NO SIGNIFICANT WEATHER AND/OR OBSTRUCTIONS TO VISIBILITY.

KYZ001>023-026-027-061>063-070>075-221600-
WESTERN AND SOUTH CENTRAL KENTUCKY

CITY           SKY/WX    TMP DP  RH WIND       PRES   REMARKS
PADUCAH        CLOUDY    66  50  56 E5        30.14F
HENDERSON      PTSUNNY   67  46  47 N5        30.16S
OWENSBORO      CLOUDY    65  46  50 N7        30.16S
HOPKINSVILLE   CLOUDY    64  49  57 E8        30.15F
BOWLING GREEN  PTSUNNY   66  50  56 E8        30.17S
GLASGOW        NOT AVBL
$$

KYZ024-025-028>034-038-045-046-053-221600-
NORTH CENTRAL KENTUCKY

CITY           SKY/WX    TMP DP  RH WIND       PRES   REMARKS
LOUISVILLE/SDF PTSUNNY   66  46  48 NW8       30.15F
LOUISVILLE/LOU CLOUDY    65  47  52 VRB3      30.16F
FORT KNOX      MOSUNNY   62  47  56 N5        30.14F
$$

KYZ035>037-039>044-047>052-055>060-089>105-221600-
NORTHEAST KENTUCKY

CITY           SKY/WX    TMP DP  RH WIND       PRES   REMARKS
LEXINGTON      CLOUDY    62  44  51 NW7       30.17F
COVINGTON      PTSUNNY   61  43  51 NW9       30.15F
FRANKFORT      PTSUNNY   62  43  49 NW9       30.16F
$$

KYZ054-064>069-076>088-106>120-221600-
SOUTHEAST KENTUCKY

CITY           SKY/WX    TMP DP  RH WIND       PRES   REMARKS
JACKSON        MOSUNNY   60  45  57 CALM      30.16F
LONDON         CLOUDY    61  48  62 N7        30.16F
SOMERSET       NOT AVBL
MIDDLESBORO    CLOUDY    63  56  79 N8        30.15S
MONTICELLO     CLOUDY    62  52  69 N13G23    30.20
$$




USA.gov is the U.S. government's official web portal to all federal, state and local government web resources and services.